NOAA NWS Hourly Roundups by Site

Regional Weather Roundup for Bismarck, ND

To Select Another Site Choose from List

Select Site:  

866
ASUS43 KBIS 221410
RWRBIS

NWR BROADCAST TEXT
NATIONAL WEATHER SERVICE BISMARCK ND
900 AM CDT SUN APR 22 2018

NOTE: "FAIR" INDICATES FEW OR NO CLOUDS BELOW 12,000 FEET WITH NO
SIGNIFICANT WEATHER AND/OR OBSTRUCTIONS TO VISIBILITY.


CITY           SKY/WX    TMP DP  RH WIND       PRES   REMARKS
WILLISTON      CLOUDY    47  30  51 CALM      30.13R
MINOT          CLOUDY    48  37  65 SW14      30.10R
MINOT AFB      CLOUDY    48  38  67 W10       30.09R
BISMARCK       SUNNY     45  36  70 S12       30.18S
DICKINSON      SUNNY     45  37  73 W3        30.11S
GARRISON         N/A     41  37  86 SW9       30.13R
HETTINGER ARPT SUNNY     40  36  86 SW5       30.16R
JAMESTOWN      MOSUNNY   42  36  79 S14       30.21F
CARRINGTON     CLOUDY    46  37  71 S12G20    30.20R
LINTON           N/A    N/A N/A N/A S10       30.21F
OAKES            N/A     41  36  81 S14       30.27S
TIOGA          FAIR      39  39 100 SW6       30.13S
$$

CITY           SKY/WX    TMP DP  RH WIND       PRES   REMARKS
GRAND FORKS    FAIR      41  38  89 S14       30.23S
GRAND FORKS AF FAIR      44  37  75 S14       30.21F
DEVILS LAKE    FAIR      43  33  68 S15       30.17R
FARGO          FAIR      46  34  62 S15       30.28R
CANDO          FAIR      45  37  76 S14       30.16R
CAVALIER         N/A     45  36  70 S15       30.15S
GWINNER          N/A     43  36  75 SW9       30.27S
ROLLA          FAIR      41  41 100 SW14      30.10S
WALHALLA       FAIR      50  36  57 SW13G23   30.14R
$$

CITY           SKY/WX    TMP DP  RH WIND       PRES   REMARKS
ABERDEEN       SUNNY     43  37  79 S7        30.28R
MOBRIDGE       SUNNY     41  36  82 SE12      30.19F
BUFFALO          N/A     42  37  82 CALM      30.09R
RAPID CITY     SUNNY     38  34  85 CALM      30.17R
GLASGOW        SUNNY     44  30  57 NW7       30.15R
SIDNEY         PTSUNNY   49  30  48 W6        30.14R
WOLF POINT     PTSUNNY   47  29  49 W14       30.16R
GLENDIVE       MOSUNNY   50  27  40 NW9       30.16S
MILES CITY     MOSUNNY   46  33  60 W3        30.18R
BAKER          SUNNY     45  39  79 NW6       30.16S
$$

CITY           SKY/WX    TMP DP  RH WIND       PRES   REMARKS
BILLINGS       MOSUNNY   46  28  49 NE7       30.18S
GREAT FALLS    CLOUDY    40  24  53 CALM      30.16R
REGINA         MOSUNNY   43  36  75 W13       30.04R
ESTEVAN        MOSUNNY   45  32  61 SW9       30.10R
$$




 

View Past Reports for Bismarck, ND.

Products Courtesy of NOAA-NWS
NWS Information Parsing Script by Ken True at Saratoga Weather - Script by SE Lincoln Weather.